Location: Cheyres
(46.8153°N, 6.7877°E)
Time: 02:21:20
(UTC+00:00)

CUBEBUG 2 - Pass Details

Date: 05 July 2022
Orbit: 584 x 692 km, 97.7° (Epoch: 11 August)

Event Time Altitude Azimuth Distance (km) Brightness Sun altitude
Rises 02:09:28 0° 19° (NNE) 2,845 ? -12.4°
Reaches altitude 10° 02:11:42 10° 26° (NNE) 1,950 ? -12.2°
Maximum altitude 02:15:45 44° 99° (E) 849 ? -11.8°
Drops below altitude 10° 02:19:53 10° 172° (S) 1,989 ? -11.3°
Enters shadow 02:20:31 - 174° (S) 2,242 ? -11.3°
